{"data":{"norad_id":58505,"epoch":"2026-05-25T04:05:46.382208Z","epoch_age_seconds":59579,"freshness":"FRESH","line1":"1 58505U 23190A   26145.17067572  .00000045  00000+0  54710-4 0  9990","line2":"2 58505  86.5033 340.5484 0002018 100.3930 259.7440 13.39550388121612","mean_motion":13.39550388,"eccentricity":0.0002018,"inclination_deg":86.5033,"raan_deg":340.5484,"arg_perigee_deg":100.393,"mean_anomaly_deg":259.744,"bstar":5.471e-5,"rev_number":12161,"period_min":107.49875576909,"perigee_km":1109.4432287933,"apogee_km":1112.4658261338,"semimajor_km":7489.0915274635,"source":"CELESTRAK","updated_at":"2026-05-25T13:38:00.795637Z"}}